Regional Weather Roundup
Issued by NWS

Home | Current Version | Previous Version | Text Only | Print | Product List | Glossary On
Versions: 1 2 3 4 5 6 7 8 9 10 11 12 13 14 15 16 17 18 19 20 21 22 23 24 25 26 27 28 29 30 31 32 33 34 35 36 37 38 39 40 41 42 43 44 45 46 47 48 49 50
000
ASUS44 KFWD 252215
RWRTX
NORTH TEXAS HOURLY WEATHER ROUNDUP
NATIONAL WEATHER SERVICE FORT WORTH TX
400 PM CST SAT FEB 25 2017

NOTE: "FAIR" INDICATES FEW OR NO CLOUDS BELOW 12,000 FEET WITH NO
SIGNIFICANT WEATHER AND/OR OBSTRUCTIONS TO VISIBILITY.

TXZ118-119-252300-
DALLAS/FORT WORTH METROPLEX

CITY           SKY/WX    TMP DP  RH WIND       PRES   REMARKS
DFW AIRPORT    SUNNY     53  20  27 CALM      30.12F
DALLAS LOVE    SUNNY     55  19  24 S7        30.13F
FTW MEACHAM    SUNNY     54  20  26 E10G16    30.12F
DAL-EXECUTIVE  SUNNY     53  20  27 SE3       30.12F
FTW-ALLIANCE   SUNNY     53  17  24 VRB3      30.13F
FTW-NAS-JRB    SUNNY     53  19  26 N3        30.13F
FTW-SPINKS     SUNNY     54  23  30 CALM      30.14F
ARLINGTON      SUNNY     54  20  26 N3        30.13F
GRAND PRAIRIE  SUNNY     52  19  28 CALM      30.15F
ADDISON        SUNNY     52  18  25 CALM      30.14F
MESQUITE       SUNNY     50  19  29 CALM      30.15F
LANCASTER      SUNNY     53  25  33 E3        30.15F
$$

TXZ091>094-102>105-117-120-121-131>134-252300-
NORTH CENTRAL TEXAS

CITY           SKY/WX    TMP DP  RH WIND       PRES   REMARKS
SHRMAN/DENISON SUNNY     50  16  26 NE5       30.14F
GAINESVILLE    SUNNY     50  15  24 CALM      30.14F
BOWIE          SUNNY     53  17  24 CALM      30.10F
BRIDGEPORT     SUNNY     51  19  27 CALM      30.14F
DECATUR        SUNNY     51  14  23 SE6       30.12F
DENTON         SUNNY     51  20  29 E6        30.13F
MCKINNEY       SUNNY     52  19  27 VRB7      30.14F
BONHAM         SUNNY     48  18  29 CALM      30.14F
GREENVILLE     SUNNY     52  21  30 E5        30.14F
ROCKWALL       SUNNY     52  22  30 CALM      30.15F
TERRELL        SUNNY     54  21  27 NE6       30.15F
WAXAHACHIE     SUNNY     53  25  33 CALM      30.14F
CLEBURNE       SUNNY     54  23  30 CALM      30.13F
GRANBURY       SUNNY     55  22  28 E5        30.13F
$$

TXZ083>090-098>101-113>116-127>130-139>142-154-155-252300-
WESTERN NORTH TEXAS

CITY           SKY/WX    TMP DP  RH WIND       PRES   REMARKS
WICHITA FALLS  SUNNY     48  18  30 E6        30.11F
WF-KICKAPOO    SUNNY     49  16  27 SE6       30.13F
VERNON         SUNNY     49   8  19 S8        30.11F
ABILENE        SUNNY     54  23  30 SE7       30.07F
ABILENE-DYESS  SUNNY     56  24  29 S10       30.05F
GRAHAM         SUNNY     54  21  28 SE5       30.09F
BRECKENRIDGE   SUNNY     56  20  23 SE5       30.09F
CISCO          SUNNY     54  21  28 E6G13     30.09F
MINERAL WELLS  SUNNY     53  17  24 E8        30.09F
STEPHENVILLE   SUNNY     54  18  24 SE6       30.12F
COMANCHE       SUNNY     55  25  31 SE3       30.09F
BROWNWOOD      SUNNY     57  21  24 SE8       30.08F
COLEMAN        SUNNY     56  24  28 SE6       30.08S
$$

TXZ143>147-156>162-174-175-252300-
CENTRAL TEXAS

CITY           SKY/WX    TMP DP  RH WIND       PRES   REMARKS
WACO           SUNNY     56  28  34 NE10      30.12F
WACO-TSTC      SUNNY     57  27  30 N5        30.12F
WACO-MCGREGOR  SUNNY     55  28  35 NE8       30.12F
HILLSBORO      SUNNY     55  26  32 NE5       30.12F
CORSICANA      SUNNY     54  27  35 VRB6      30.15F
MEXIA          SUNNY     55  26  32 NE7       30.12F
HEARNE         SUNNY     61  27  27 N9        30.10F
CAMERON        SUNNY     58  32  36 N10       30.11F
TEMPLE         SUNNY     56  27  32 NE7       30.12F
KILLEEN        MOSUNNY   56  24  28 E8        30.09F
KILLEEN-SKYLRK SUNNY     57  27  31 E7        30.11F
FORT HOOD      SUNNY     58  26  29 NE7       30.07F
GATESVILLE     SUNNY     57  28  33 E3        30.12F
HAMILTON       SUNNY     58  24  27 E6        30.10F
LAMPASAS       MOSUNNY   58  26  28 SE7       30.08F
$$

TXZ095>097-106>112-122>126-135>138-148>153-164>167-252300-
EAST TEXAS

CITY           SKY/WX    TMP DP  RH WIND       PRES   REMARKS
PARIS          SUNNY     52  19  28 N5        30.14F
SULPHUR SPRNGS SUNNY     51  23  33 CALM      30.17F
MOUNT PLEASANT SUNNY     54  22  28 NW5       30.15F
GILMER         SUNNY     54  24  31 NW3       30.13F
MINEOLA        SUNNY     54  23  30 S3        30.14F
TYLER          SUNNY     57  22  25 N3        30.13F
LONGVIEW       SUNNY     57  24  28 E5        30.13F
MARSHALL       SUNNY     55  18  23 N5        30.14F
PALESTINE      SUNNY     59  28  31 N5        30.14F
JACKSONVILLE   SUNNY     56  25  30 CALM      30.15F
HENDERSON      SUNNY     58  24  28 NE5       30.14F
CENTER         CLEAR     62  26  25 CALM      30.14S
NACOGDOCHES    SUNNY     61  28  29 NE5       30.11F
LUFKIN         SUNNY     62  26  25 N6        30.11F
$$

SUPPLEMENTAL OBSERVATIONS (CENTRAL)

CITY           SKY/WX    TMP DP  RH WIND       PRES   REMARKS
DENISON DAM      N/A     48  25  40 NW3         N/A
CADDO GRASSLND   N/A     54  19  26 NE3         N/A
PAT MAYSE LAKE   N/A     52  12  20 S3          N/A
GREENVILLE       N/A     54  23  30 N2          N/A
CEDAR HILL       N/A     55  25  30 NW5         N/A
ATHENS           N/A     57  25  28 S3          N/A
LAKE LIMESTONE   N/A     59  27  29 NE8         N/A
MCGREGOR         N/A     55  28  35 NE7         N/A
TEMPLE           N/A     57  28  33 NE8         N/A
$$

SUPPLEMENTAL OBSERVATIONS (WEST)

CITY           SKY/WX    TMP DP  RH WIND       PRES   REMARKS
MILLERS CREEK    N/A     52  23  32 SE7         N/A
POSSUM KINGDOM   N/A     54  23  30 NW3G12      N/A
LBJ GRASSLAND    N/A     54  18  24 E5          N/A
GRANBURY         N/A     55  21  26 SE5         N/A
COMANCHE         N/A     55  25  30 SE7         N/A
HAMBY            N/A     57  25  28 SE6G14      N/A
IVIE RESERVOIR   N/A     59  27  29 SE8G22      N/A
COLORADO BEND    N/A     59  27  29 S6          N/A
$$

SUPPLEMENTAL OBSERVATIONS (EAST)

CITY           SKY/WX    TMP DP  RH WIND       PRES   REMARKS
TEXARKANA        N/A     55  19  24 E2          N/A
LINDEN           N/A     57  19  23 E3          N/A
CADDO LAKE       N/A    N/A N/A N/A E3          N/A
LUFKIN           N/A     63  27  25 MISG        N/A
N SABINE NF      N/A     61  27  27 MISG        N/A
$$

SUPPLEMENTAL OBSERVATIONS ARE A COLLECTION OF AUTOMATED INSTRUMENTS
THAT ARE MAINTAINED BY A VARIETY OF FEDERAL AND STATE AGENCIES.
CERTAIN ELEMENTS...SUCH AS HUMIDITY VALUES AND SUSTAINED WIND
SPEEDS...MAY BE APPROXIMATED.




USA.gov is the U.S. government's official web portal to all federal, state and local government web resources and services.